Location: Córrego Montividiu
(13.2496°S, 48.8603°W)
Time: 12:02:31
(UTC+00:00)

Radarsat Rocket - Pass Details

Date: 11 March 2026
Orbit: 933 x 1491 km, 100.5° (Epoch: 22 April)

Event Time Altitude Azimuth Distance (km) Brightness Sun altitude
Rises 22:36:58 0° 164° (SSE) 3,599 6.9 -16.6°
Reaches altitude 10° 22:39:21 10° 163° (SSE) 2,659 6.2 -17.1°
Maximum altitude 22:45:13 80° 76° (ENE) 989 3.9 -18.6°
Drops below altitude 10° 22:51:28 10° 349° (N) 2,827 6.4 -20.1°
Sets 22:54:04 0° 348° (NNW) 3,842 7.2 -20.7°
